Simultaneous Nadir Overpasses (SNOs) Predictions

Prediction of SNOs between AQUA and LANDSAT-8 Satellite Orbit:

Table of predicted SNOs for the next 14.0 days since TLE Epoch: 4/19/2025
Index Date (AQUA) Time (AQUA) Lat,Lon (AQUA) SZA (AQUA ) Date (LANDSAT-8) Time (LANDSAT-8) Lat,Lon (LANDSAT-8) SZA (LANDSAT-8 ) Distance(km) Time Diff (sec)
1 05/02/2025 05:30:39 -74.69, -75.38 120.69 05/02/2025 05:29:33 -74.68, -77.97 120.80 76.02 66
2 05/02/2025 06:20:03 74.94, 91.64 59.53 05/02/2025 06:18:54 74.90, 90.23 59.43 41.15 69
3 05/02/2025 07:09:25 -75.17,-101.30 120.28 05/02/2025 07:08:16 -75.18,-101.40 120.28 3.01 69
4 05/02/2025 07:58:45 75.22, 66.23 59.76 05/02/2025 07:57:41 75.20, 66.29 59.73 2.86 64
5 05/02/2025 08:48:02 -75.20,-126.02 120.28 05/02/2025 08:47:09 -75.18,-126.13 120.31 3.56 53
6 05/02/2025 09:37:21 75.20, 41.65 59.72 05/02/2025 09:36:34 75.19, 41.56 59.70 2.62 47
7 05/02/2025 10:26:39 -75.22,-150.74 120.28 05/02/2025 10:26:01 -75.22,-150.72 120.28 0.63 38
8 05/02/2025 11:15:58 75.22, 16.93 59.72 05/02/2025 11:15:26 75.24, 16.96 59.73 2.28 32
9 05/02/2025 12:05:16 -75.25,-175.47 120.27 05/02/2025 12:04:54 -75.22,-175.46 120.30 3.05 22
10 05/02/2025 12:54:35 75.25, -7.79 59.72 05/02/2025 12:54:19 75.24, -7.77 59.71 1.46 16
11 05/02/2025 13:43:53 -75.27, 159.81 120.27 05/02/2025 13:43:46 -75.27, 159.95 120.27 3.90 7
12 05/02/2025 14:33:11 75.22, -32.38 59.68 05/02/2025 14:33:12 75.23, -32.50 59.68 3.67 1
13 05/02/2025 15:22:29 -75.25, 135.23 120.31 05/02/2025 15:22:39 -75.26, 135.21 120.30 1.41 10
14 05/02/2025 16:11:48 75.25, -57.10 59.68 05/02/2025 16:12:04 75.28, -57.10 59.71 3.08 16
15 05/02/2025 17:01:06 -75.27, 110.51 120.31 05/02/2025 17:01:32 -75.26, 110.48 120.32 2.12 26
16 05/02/2025 17:50:25 75.27, -81.82 59.69 05/02/2025 17:50:57 75.27, -81.83 59.69 0.39 32
17 05/02/2025 18:39:43 -75.30, 85.78 120.30 05/02/2025 18:40:24 -75.30, 85.89 120.29 2.90 41
18 05/02/2025 19:29:02 75.30,-106.55 59.69 05/02/2025 19:29:50 75.27,-106.56 59.66 3.74 48
19 05/02/2025 20:18:19 -75.28, 61.20 120.35 05/02/2025 20:19:17 -75.30, 61.15 120.32 2.69 58
20 05/02/2025 21:07:39 75.33,-131.27 59.69 05/02/2025 21:08:42 75.31,-131.16 59.69 3.46 63
21 05/02/2025 21:56:57 -75.35, 36.34 120.30 05/02/2025 21:58:09 -75.34, 36.56 120.29 6.30 72
22 05/02/2025 22:46:21 75.60,-156.71 59.92 05/02/2025 22:47:30 75.56,-155.19 59.94 42.34 69



Historial Predications of SNOs between AQUA and LANDSAT-8
